Regional Weather Roundup
Issued by NWS

Home | Current Version | Previous Version | Text Only | Print | Product List | Glossary Off
Versions: 1 2 3 4 5 6 7 8 9 10 11 12 13 14 15 16 17 18 19 20 21 22 23 24 25 26 27 28 29 30 31 32 33 34 35 36 37 38 39 40 41 42 43 44 45 46 47 48 49 50

000
ASUS43 KLSX 280310
RWRMO

WEATHER SUMMARY FOR MISSOURI
NATIONAL WEATHER SERVICE SPRINGFIELD MO
1000 PM CDT SAT AUG 27 2016

NOTE: "FAIR" INDICATES FEW OR NO CLOUDS BELOW 12,000 FEET WITH NO
       SIGNIFICANT WEATHER AND/OR OBSTRUCTIONS TO VISIBILITY.
       CURRENT SKY AND/OR WEATHER CONDITIONS ARE NOT AVAILABLE FOR
       CHILLICOTHE AND FARMINGTON.

MOZ001>031-035>038-043-044-053-054-280400-
...NORTHERN AND WESTERN MISSOURI...

CITY           SKY/WX    TMP DP  RH WIND       PRES   REMARKS
KANSAS CTY INT PTCLDY    73  69  87 E3        30.05R
KANSAS C DTWN  MOCLDY    74  71  91 CALM      30.03R
LEE`S SUMMIT   PTCLDY    80  72  76 SE5       30.05R
ST JOSEPH      PTCLDY    76  70  82 E3        30.03R
KIRKSVILLE     CLEAR     73  70  90 CALM      30.07R

$$
MOZ066>068-077>081-088>096-101>105-280400-
...SOUTHWEST MISSOURI...

CITY           SKY/WX    TMP DP  RH WIND       PRES   REMARKS
SPRINGFIELD    MOCLDY    79  69  71 S9        30.09R
JOPLIN         CLEAR     80  70  71 SE6       30.05R
BRANSON        PTCLDY    75  72  88 CALM      30.11R

$$
MOZ032>034-039>042-045>050-055>058-069>072-280400-
...CENTRAL MISSOURI...

CITY           SKY/WX    TMP DP  RH WIND       PRES   REMARKS
COLUMBIA       CLOUDY    78  73  84 SE3       30.06R
JEFFERSON CITY CLOUDY    77  75  93 SE3       30.04R
ROLLA          PTCLDY    73  71  93 CALM      30.08R
SEDALIA        CLEAR     76  71  85 S8        30.06R
WHITEMAN AFB   PTCLDY    76  76 100 S3        30.04R
OSAGE BEACH    PTCLDY    74  73  97 S3        30.08R

$$
MOZ051-052-059>065-280400-
...EAST CENTRAL MISSOURI...

CITY           SKY/WX    TMP DP  RH WIND       PRES   REMARKS
ST LOUIS INTL  MOCLDY    79  69  71 E6        30.08R
SPIRIT OF STL  MOCLDY    76  74  93 W6        30.08R THUNDER
ST CHARLES     PTCLDY    74  73  97 SE5       30.06R

$$
MOZ072>076-082>087-097>100-106>115-280400-
...SOUTH CENTRAL AND SOUTHEAST MISSOURI...

CITY           SKY/WX    TMP DP  RH WIND       PRES   REMARKS
CAPE GIRARDEAU CLEAR     76  73  91 NE3       30.07R
FARMINGTON     CLEAR     75  72  90 E3        30.11R
POPLAR BLUFF   CLEAR     75  73  93 CALM      30.07R
WEST PLAINS    CLEAR     73  70  90 CALM      30.12R

$$




USA.gov is the U.S. government's official web portal to all federal, state and local government web resources and services.